sat.trackr.live / text

‹ back to catalog

STARLINK-32607

NORAD 61977 · 2024-210U

PAYLOAD ACTIVE UNKNOWN

§ Identity

Operator
Country
US
Launch date
2024-11-14
Launch site
AFETR
Launch vehicle
Mass (kg)
RCS (m²)

Purposes: comms

External: N2YO · Heavens-Above · Gunter

§ Orbital elements

Epoch: 2026-05-25T03:55:44.274432Z

Period
94.27 min
Inclination
43.0008°
Eccentricity
0.0001232
Mean motion
15.27596651 rev/d
Perigee alt
482.2 km
Apogee alt
483.8 km
Semi-major
6,861.1 km
B*
7.9222e-4
RAAN
108.1082°
Arg perigee
273.6867°
Mean anomaly
86.3844°
Rev number
8,661

§ Raw data

STARLINK-326071 61977U 24210U   26145.16370688  .00021613  00000+0  79222-3 0  99932 61977  43.0008 108.1082 0001232 273.6867  86.3844 15.27596651 86615

JSON: /api/v1/satellites/61977 · /tle

For live sub-satellite position, see the globe view (requires WebGL).

§ Visibility from observer

Set your observer location to see the next 7 days of passes ≥ 10°. The values pass through the URL so the page stays shareable.

No JS? Fill the form by hand. The geolocation button needs JavaScript.